Time,TemperatureF,DewpointF,PressureIn,WindDirection,WindDirectionDegrees,WindSpeedMPH,WindSpeedGustMPH,Humidity,HourlyPrecipIn,Conditions,Clouds,dailyrainin,SoftwareType,DateUTC
2013-03-28 00:02:00,34.0,-99.9,-100.00,NE,54,0.0,1.0,-999,0.00,,,0.00,,2013-03-28 05:02:00,
2013-03-28 00:13:00,34.0,-99.9,-100.00,NE,54,0.0,1.0,-999,0.00,,,0.00,,2013-03-28 05:13:00,
2013-03-28 00:22:00,34.0,-99.9,-100.00,NE,54,0.0,1.0,-999,0.00,,,0.00,,2013-03-28 05:22:00,
2013-03-28 00:33:00,34.0,-99.9,-100.00,NNE,22,1.0,3.0,-999,0.00,,,0.00,,2013-03-28 05:33:00,
2013-03-28 00:43:00,34.0,-99.9,-100.00,NNE,22,1.0,3.0,-999,0.00,,,0.00,,2013-03-28 05:43:00,
2013-03-28 00:52:00,34.0,-99.9,-100.00,NNE,22,1.0,3.0,-999,0.00,,,0.00,,2013-03-28 05:52:00,
2013-03-28 01:02:00,33.0,-99.9,-100.00,NNE,26,0.0,0.0,-999,0.00,,,0.00,,2013-03-28 06:02:00,
2013-03-28 01:13:00,33.0,-99.9,-100.00,NNE,26,0.0,0.0,-999,0.00,,,0.00,,2013-03-28 06:13:00,
2013-03-28 01:22:00,33.0,-99.9,-100.00,NNE,26,0.0,0.0,-999,0.00,,,0.00,,2013-03-28 06:22:00,
2013-03-28 01:33:00,33.0,-99.9,-100.00,WNW,285,0.0,0.0,-999,0.00,,,0.00,,2013-03-28 06:33:00,
2013-03-28 01:43:00,33.0,-99.9,-100.00,WNW,285,0.0,0.0,-999,0.00,,,0.00,,2013-03-28 06:43:00,
2013-03-28 01:52:00,33.0,-99.9,-100.00,WNW,285,0.0,0.0,-999,0.00,,,0.00,,2013-03-28 06:52:00,
2013-03-28 02:02:00,33.0,-99.9,-100.00,NE,37,0.0,1.0,-999,0.00,,,0.00,,2013-03-28 07:02:00,
2013-03-28 02:13:00,33.0,-99.9,-100.00,NE,37,0.0,1.0,-999,0.00,,,0.00,,2013-03-28 07:13:00,
2013-03-28 02:22:00,33.0,-99.9,-100.00,NE,37,0.0,1.0,-999,0.00,,,0.00,,2013-03-28 07:22:00,
2013-03-28 02:32:00,33.0,-99.9,-100.00,ESE,105,1.0,2.0,-999,0.00,,,0.00,,2013-03-28 07:32:00,
2013-03-28 02:42:00,33.0,-99.9,-100.00,ESE,105,1.0,2.0,-999,0.00,,,0.00,,2013-03-28 07:42:00,
2013-03-28 02:52:00,33.0,-99.9,-100.00,ESE,105,1.0,2.0,-999,0.00,,,0.00,,2013-03-28 07:52:00,
2013-03-28 03:03:00,32.0,-99.9,-100.00,WSW,239,0.0,0.0,-999,0.00,,,0.00,,2013-03-28 08:03:00,
2013-03-28 03:12:00,32.0,-99.9,-100.00,WSW,239,0.0,0.0,-999,0.00,,,0.00,,2013-03-28 08:12:00,
2013-03-28 03:22:00,32.0,-99.9,-100.00,WSW,239,0.0,0.0,-999,0.00,,,0.00,,2013-03-28 08:22:00,
2013-03-28 03:33:00,32.0,-99.9,-100.00,West,266,0.0,0.0,-999,0.00,,,0.00,,2013-03-28 08:33:00,
2013-03-28 03:42:00,32.0,-99.9,-100.00,West,266,0.0,0.0,-999,0.00,,,0.00,,2013-03-28 08:42:00,
2013-03-28 03:52:00,32.0,-99.9,-100.00,West,266,0.0,0.0,-999,0.00,,,0.00,,2013-03-28 08:52:00,
2013-03-28 04:02:00,31.0,-99.9,-100.00,SW,231,2.0,2.0,-999,0.00,,,0.00,,2013-03-28 09:02:00,
2013-03-28 04:12:00,31.0,-99.9,-100.00,SW,231,2.0,2.0,-999,0.00,,,0.00,,2013-03-28 09:12:00,
2013-03-28 04:22:00,31.0,-99.9,-100.00,SW,231,2.0,2.0,-999,0.00,,,0.00,,2013-03-28 09:22:00,
2013-03-28 04:33:00,31.0,-99.9,-100.00,WSW,253,0.0,1.0,-999,0.00,,,0.00,,2013-03-28 09:33:00,
2013-03-28 04:42:00,31.0,-99.9,-100.00,WSW,253,0.0,1.0,-999,0.00,,,0.00,,2013-03-28 09:42:00,
2013-03-28 04:52:00,31.0,-99.9,-100.00,WSW,253,0.0,1.0,-999,0.00,,,0.00,,2013-03-28 09:52:00,
2013-03-28 05:03:00,31.0,-99.9,-100.00,West,268,1.0,2.0,-999,0.00,,,0.00,,2013-03-28 10:03:00,
2013-03-28 05:12:00,31.0,-99.9,-100.00,West,268,1.0,2.0,-999,0.00,,,0.00,,2013-03-28 10:12:00,
2013-03-28 05:22:00,31.0,-99.9,-100.00,West,268,1.0,2.0,-999,0.00,,,0.00,,2013-03-28 10:22:00,
2013-03-28 05:30:00,30.0,-99.9,-100.00,NW,310,0.0,1.0,-999,0.00,,,0.00,,2013-03-28 10:30:00,
2013-03-28 05:33:00,31.0,-99.9,-100.00,SW,233,2.0,2.0,-999,0.00,,,0.00,,2013-03-28 10:33:00,
2013-03-28 05:43:00,31.0,-99.9,-100.00,SW,233,2.0,2.0,-999,0.00,,,0.00,,2013-03-28 10:43:00,
2013-03-28 05:53:00,31.0,-99.9,-100.00,SW,233,2.0,2.0,-999,0.00,,,0.00,,2013-03-28 10:53:00,
2013-03-28 06:00:00,30.0,-99.9,-100.00,NNE,14,2.0,2.0,-999,0.00,,,0.00,,2013-03-28 11:00:00,
2013-03-28 06:03:00,30.0,-99.9,-100.00,NW,310,0.0,1.0,-999,0.00,,,0.00,,2013-03-28 11:03:00,
2013-03-28 06:12:00,30.0,-99.9,-100.00,NW,310,0.0,1.0,-999,0.00,,,0.00,,2013-03-28 11:12:00,
2013-03-28 06:23:00,30.0,-99.9,-100.00,NW,310,0.0,1.0,-999,0.00,,,0.00,,2013-03-28 11:23:00,
2013-03-28 06:30:00,30.0,-99.9,-100.00,North,10,1.0,2.0,-999,0.00,,,0.00,,2013-03-28 11:30:00,
2013-03-28 06:43:00,30.0,-99.9,-100.00,NNE,14,2.0,2.0,-999,0.00,,,0.00,,2013-03-28 11:43:00,
2013-03-28 06:52:00,30.0,-99.9,-100.00,NNE,14,2.0,2.0,-999,0.00,,,0.00,,2013-03-28 11:52:00,
2013-03-28 07:22:00,30.0,-99.9,-100.00,North,10,1.0,2.0,-999,0.00,,,0.00,,2013-03-28 12:22:00,
2013-03-28 07:30:00,32.0,-99.9,-100.00,WNW,303,0.0,0.0,-999,0.00,,,0.00,,2013-03-28 12:30:00,
2013-03-28 08:00:00,34.0,-99.9,-100.00,ENE,77,1.0,2.0,-999,0.00,,,0.00,,2013-03-28 13:00:00,
2013-03-28 08:30:00,39.0,-99.9,-100.00,ESE,119,0.0,1.0,-999,0.00,,,0.00,,2013-03-28 13:30:00,
2013-03-28 09:23:00,39.0,-99.9,-100.00,ESE,119,0.0,1.0,-999,0.00,,,0.00,,2013-03-28 14:23:00,
2013-03-28 09:42:00,35.0,-99.9,-100.00,SW,221,3.0,4.0,-999,0.00,,,0.00,,2013-03-28 14:42:00,
2013-03-28 09:52:00,35.0,-99.9,-100.00,SW,221,3.0,4.0,-999,0.00,,,0.00,,2013-03-28 14:52:00,
2013-03-28 10:02:00,39.0,-99.9,-100.00,SSE,157,1.0,1.0,-999,0.00,,,0.00,,2013-03-28 15:02:00,
2013-03-28 10:12:00,39.0,-99.9,-100.00,SSE,157,1.0,1.0,-999,0.00,,,0.00,,2013-03-28 15:12:00,
2013-03-28 10:22:00,39.0,-99.9,-100.00,SSE,157,1.0,1.0,-999,0.00,,,0.00,,2013-03-28 15:22:00,
2013-03-28 10:33:00,41.0,-99.9,-100.00,East,101,1.0,1.0,-999,0.00,,,0.00,,2013-03-28 15:33:00,
2013-03-28 10:43:00,41.0,-99.9,-100.00,East,101,1.0,1.0,-999,0.00,,,0.00,,2013-03-28 15:43:00,
2013-03-28 10:53:00,41.0,-99.9,-100.00,East,101,1.0,1.0,-999,0.00,,,0.00,,2013-03-28 15:53:00,
2013-03-28 11:03:00,41.0,-99.9,-100.00,ENE,62,0.0,1.0,-999,0.00,,,0.00,,2013-03-28 16:03:00,
2013-03-28 11:13:00,41.0,-99.9,-100.00,ENE,62,0.0,1.0,-999,0.00,,,0.00,,2013-03-28 16:13:00,
2013-03-28 11:23:00,41.0,-99.9,-100.00,ENE,62,0.0,1.0,-999,0.00,,,0.00,,2013-03-28 16:23:00,
2013-03-28 11:32:00,43.0,-99.9,-100.00,SW,218,2.0,3.0,-999,0.00,,,0.00,,2013-03-28 16:32:00,
2013-03-28 11:42:00,43.0,-99.9,-100.00,SW,218,2.0,3.0,-999,0.00,,,0.00,,2013-03-28 16:42:00,
2013-03-28 11:52:00,43.0,-99.9,-100.00,SW,218,2.0,3.0,-999,0.00,,,0.00,,2013-03-28 16:52:00,
2013-03-28 12:02:00,44.0,-99.9,-100.00,West,265,1.0,3.0,-999,0.00,,,0.00,,2013-03-28 17:02:00,
2013-03-28 12:12:00,44.0,-99.9,-100.00,West,265,1.0,3.0,-999,0.00,,,0.00,,2013-03-28 17:12:00,
2013-03-28 12:22:00,44.0,-99.9,-100.00,West,265,1.0,3.0,-999,0.00,,,0.00,,2013-03-28 17:22:00,
2013-03-28 12:32:00,46.0,-99.9,-100.00,ENE,67,0.0,1.0,-999,0.00,,,0.00,,2013-03-28 17:32:00,
2013-03-28 12:42:00,46.0,-99.9,-100.00,ENE,67,0.0,1.0,-999,0.00,,,0.00,,2013-03-28 17:42:00,
2013-03-28 12:53:00,46.0,-99.9,-100.00,ENE,67,0.0,1.0,-999,0.00,,,0.00,,2013-03-28 17:53:00,
2013-03-28 13:03:00,45.0,-99.9,-100.00,East,88,2.0,3.0,-999,0.00,,,0.00,,2013-03-28 18:03:00,
2013-03-28 13:12:00,45.0,-99.9,-100.00,East,88,2.0,3.0,-999,0.00,,,0.00,,2013-03-28 18:12:00,
2013-03-28 13:22:00,45.0,-99.9,-100.00,East,88,2.0,3.0,-999,0.00,,,0.00,,2013-03-28 18:22:00,
2013-03-28 13:32:00,46.0,-99.9,-100.00,NNE,25,2.0,2.0,-999,0.00,,,0.00,,2013-03-28 18:32:00,
2013-03-28 13:42:00,46.0,-99.9,-100.00,NNE,25,2.0,2.0,-999,0.00,,,0.00,,2013-03-28 18:42:00,
2013-03-28 13:53:00,46.0,-99.9,-100.00,NNE,25,2.0,2.0,-999,0.00,,,0.00,,2013-03-28 18:53:00,
2013-03-28 14:00:00,49.0,-99.9,-100.00,East,87,0.0,1.0,-999,0.00,,,0.00,,2013-03-28 19:00:00,
2013-03-28 14:02:00,47.0,-99.9,-100.00,East,89,2.0,3.0,-999,0.00,,,0.00,,2013-03-28 19:02:00,
2013-03-28 14:12:00,47.0,-99.9,-100.00,East,89,2.0,3.0,-999,0.00,,,0.00,,2013-03-28 19:12:00,
2013-03-28 14:23:00,47.0,-99.9,-100.00,East,89,2.0,3.0,-999,0.00,,,0.00,,2013-03-28 19:23:00,
2013-03-28 14:33:00,49.0,-99.9,-100.00,East,87,0.0,1.0,-999,0.00,,,0.00,,2013-03-28 19:33:00,
2013-03-28 14:43:00,49.0,-99.9,-100.00,East,87,0.0,1.0,-999,0.00,,,0.00,,2013-03-28 19:43:00,
2013-03-28 14:53:00,49.0,-99.9,-100.00,East,87,0.0,1.0,-999,0.00,,,0.00,,2013-03-28 19:53:00,
2013-03-28 15:13:00,49.0,-99.9,-100.00,NE,39,1.0,2.0,-999,0.00,,,0.00,,2013-03-28 20:13:00,
2013-03-28 15:22:00,49.0,-99.9,-100.00,NE,39,1.0,2.0,-999,0.00,,,0.00,,2013-03-28 20:22:00,
2013-03-28 15:33:00,48.0,-99.9,-100.00,ENE,69,2.0,3.0,-999,0.00,,,0.00,,2013-03-28 20:33:00,
2013-03-28 15:43:00,48.0,-99.9,-100.00,ENE,69,2.0,3.0,-999,0.00,,,0.00,,2013-03-28 20:43:00,
2013-03-28 15:53:00,48.0,-99.9,-100.00,ENE,69,2.0,3.0,-999,0.00,,,0.00,,2013-03-28 20:53:00,
2013-03-28 16:03:00,48.0,-99.9,-100.00,ENE,67,5.0,6.0,-999,0.00,,,0.00,,2013-03-28 21:03:00,
2013-03-28 16:12:00,48.0,-99.9,-100.00,ENE,67,5.0,6.0,-999,0.00,,,0.00,,2013-03-28 21:12:00,
2013-03-28 16:22:00,48.0,-99.9,-100.00,ENE,67,5.0,6.0,-999,0.00,,,0.00,,2013-03-28 21:22:00,
2013-03-28 16:33:00,49.0,-99.9,-100.00,ENE,58,3.0,6.0,-999,0.00,,,0.00,,2013-03-28 21:33:00,
2013-03-28 16:43:00,49.0,-99.9,-100.00,ENE,58,3.0,6.0,-999,0.00,,,0.00,,2013-03-28 21:43:00,
2013-03-28 16:53:00,49.0,-99.9,-100.00,ENE,58,3.0,6.0,-999,0.00,,,0.00,,2013-03-28 21:53:00,
2013-03-28 17:03:00,50.0,-99.9,-100.00,ENE,62,3.0,4.0,-999,0.00,,,0.00,,2013-03-28 22:03:00,
2013-03-28 17:13:00,50.0,-99.9,-100.00,ENE,62,3.0,4.0,-999,0.00,,,0.00,,2013-03-28 22:13:00,
2013-03-28 17:23:00,50.0,-99.9,-100.00,ENE,62,3.0,4.0,-999,0.00,,,0.00,,2013-03-28 22:23:00,
2013-03-28 17:32:00,50.0,-99.9,-100.00,ENE,66,5.0,7.0,-999,0.00,,,0.00,,2013-03-28 22:32:00,
2013-03-28 17:43:00,50.0,-99.9,-100.00,ENE,66,5.0,7.0,-999,0.00,,,0.00,,2013-03-28 22:43:00,
2013-03-28 17:53:00,50.0,-99.9,-100.00,ENE,66,5.0,7.0,-999,0.00,,,0.00,,2013-03-28 22:53:00,
2013-03-28 18:03:00,50.0,-99.9,-100.00,ENE,57,6.0,7.0,-999,0.00,,,0.00,,2013-03-28 23:03:00,
2013-03-28 18:12:00,50.0,-99.9,-100.00,ENE,57,6.0,7.0,-999,0.00,,,0.00,,2013-03-28 23:12:00,
2013-03-28 18:22:00,50.0,-99.9,-100.00,ENE,57,6.0,7.0,-999,0.00,,,0.00,,2013-03-28 23:22:00,
2013-03-28 18:30:00,49.0,-99.9,-100.00,ENE,74,4.0,5.0,-999,0.00,,,0.00,,2013-03-28 23:30:00,
2013-03-28 18:32:00,49.0,-99.9,-100.00,ENE,69,4.0,6.0,-999,0.00,,,0.00,,2013-03-28 23:32:00,
2013-03-28 18:42:00,49.0,-99.9,-100.00,ENE,69,4.0,6.0,-999,0.00,,,0.00,,2013-03-28 23:42:00,
2013-03-28 18:53:00,49.0,-99.9,-100.00,ENE,69,4.0,6.0,-999,0.00,,,0.00,,2013-03-28 23:53:00,
2013-03-28 19:03:00,49.0,-99.9,-100.00,ENE,74,4.0,5.0,-999,0.00,,,0.00,,2013-03-29 00:03:00,
2013-03-28 19:12:00,49.0,-99.9,-100.00,ENE,74,4.0,5.0,-999,0.00,,,0.00,,2013-03-29 00:12:00,
2013-03-28 19:22:00,49.0,-99.9,-100.00,ENE,74,4.0,5.0,-999,0.00,,,0.00,,2013-03-29 00:22:00,
2013-03-28 20:03:00,45.0,-99.9,-100.00,ENE,69,3.0,4.0,-999,0.00,,,0.00,,2013-03-29 01:03:00,
2013-03-28 20:12:00,45.0,-99.9,-100.00,ENE,69,3.0,4.0,-999,0.00,,,0.00,,2013-03-29 01:12:00,
2013-03-28 20:23:00,45.0,-99.9,-100.00,ENE,69,3.0,4.0,-999,0.00,,,0.00,,2013-03-29 01:23:00,
2013-03-28 20:33:00,46.0,-99.9,-100.00,NNE,27,1.0,2.0,-999,0.00,,,0.00,,2013-03-29 01:33:00,
2013-03-28 20:42:00,46.0,-99.9,-100.00,NNE,27,1.0,2.0,-999,0.00,,,0.00,,2013-03-29 01:42:00,
2013-03-28 20:53:00,46.0,-99.9,-100.00,NNE,27,1.0,2.0,-999,0.00,,,0.00,,2013-03-29 01:53:00,
2013-03-28 21:03:00,41.0,-99.9,-100.00,East,86,4.0,4.0,-999,0.00,,,0.00,,2013-03-29 02:03:00,
2013-03-28 21:12:00,41.0,-99.9,-100.00,East,86,4.0,4.0,-999,0.00,,,0.00,,2013-03-29 02:12:00,
2013-03-28 21:22:00,41.0,-99.9,-100.00,East,86,4.0,4.0,-999,0.00,,,0.00,,2013-03-29 02:22:00,
2013-03-28 21:33:00,45.0,-99.9,-100.00,NNE,33,1.0,2.0,-999,0.00,,,0.00,,2013-03-29 02:33:00,
2013-03-28 21:42:00,45.0,-99.9,-100.00,NNE,33,1.0,2.0,-999,0.00,,,0.00,,2013-03-29 02:42:00,
2013-03-28 21:53:00,45.0,-99.9,-100.00,NNE,33,1.0,2.0,-999,0.00,,,0.00,,2013-03-29 02:53:00,
2013-03-28 22:03:00,42.0,-99.9,-100.00,East,79,2.0,3.0,-999,0.00,,,0.00,,2013-03-29 03:03:00,
2013-03-28 22:12:00,42.0,-99.9,-100.00,East,79,2.0,3.0,-999,0.00,,,0.00,,2013-03-29 03:12:00,
2013-03-28 22:22:00,42.0,-99.9,-100.00,East,79,2.0,3.0,-999,0.00,,,0.00,,2013-03-29 03:22:00,
2013-03-28 22:33:00,43.0,-99.9,-100.00,NE,49,2.0,3.0,-999,0.00,,,0.00,,2013-03-29 03:33:00,
2013-03-28 22:43:00,43.0,-99.9,-100.00,NE,49,2.0,3.0,-999,0.00,,,0.00,,2013-03-29 03:43:00,
2013-03-28 22:53:00,43.0,-99.9,-100.00,NE,49,2.0,3.0,-999,0.00,,,0.00,,2013-03-29 03:53:00,
2013-03-28 23:03:00,42.0,-99.9,-100.00,ENE,72,4.0,5.0,-999,0.00,,,0.00,,2013-03-29 04:03:00,
2013-03-28 23:13:00,42.0,-99.9,-100.00,ENE,72,4.0,5.0,-999,0.00,,,0.00,,2013-03-29 04:13:00,
2013-03-28 23:23:00,42.0,-99.9,-100.00,ENE,72,4.0,5.0,-999,0.00,,,0.00,,2013-03-29 04:23:00,
2013-03-28 23:33:00,43.0,-99.9,-100.00,ENE,69,0.0,0.0,-999,0.00,,,0.00,,2013-03-29 04:33:00,
2013-03-28 23:43:00,43.0,-99.9,-100.00,ENE,69,0.0,0.0,-999,0.00,,,0.00,,2013-03-29 04:43:00,
2013-03-28 23:53:00,43.0,-99.9,-100.00,ENE,69,0.0,0.0,-999,0.00,,,0.00,,2013-03-29 04:53:00,